Regional Weather Roundup
Issued by NWS Cleveland, OH

Home | Current Version | Previous Version | Text Only | Print | Product List | Glossary Off
Versions: 1 2 3 4 5 6 7 8 9 10 11 12 13 14 15 16 17 18 19 20 21 22 23 24 25 26 27 28 29 30 31 32 33 34 35 36 37 38 39 40 41 42 43 44 45 46 47 48 49 50

000
ASUS41 KCLE 250610
RWRCLE
OHIO REGIONAL WEATHER ROUNDUP
NATIONAL WEATHER SERVICE WILMINGTON, OH
200 AM EDT SAT APR 25 2015

NOTE: "FAIR" INDICATES FEW OR NO CLOUDS BELOW 12,000 FEET WITH NO
SIGNIFICANT WEATHER AND/OR OBSTRUCTIONS TO VISIBILITY.

OHZ001>008-015>018-024>027-034-035-043-044-250700-
   NORTHWEST OHIO

CITY           SKY/WX    TMP DP  RH WIND       PRES   REMARKS
DEFIANCE       CLOUDY    49  35  58 NE9       29.96S
FINDLAY        CLOUDY    50  33  52 NE7       29.95R
TOLEDO EXPRESS CLOUDY    46  30  53 E8        29.98R
TOLEDO EXEC    CLOUDY    47  30  51 NE10      29.99S
LIMA           CLOUDY    49  34  56 E3        29.93R
$$

OHZ009>014-019>023-028>033-038-089-250700-
   NORTHEAST OHIO

CITY           SKY/WX    TMP DP  RH WIND       PRES   REMARKS
CLE-HOPKINS    CLOUDY    42  21  43 SE7       30.01S
CLE-LAKEFRONT  CLOUDY    44  20  38 SE7       29.99S
CUY CO. ARPT   NOT AVBL
LORAIN-ELYRIA  LGT RAIN  42  27  55 NE6       30.00R
ASHTABULA      FAIR      34  26  72 CALM      30.00S
AKRON-CANTON   CLOUDY    42  21  43 E8        29.99R
WOOSTER        CLOUDY    42  26  53 E8        29.98S
MANSFIELD      CLOUDY    46  26  45 E13       29.94F
YOUNGSTOWN     FAIR      32  23  69 E5        29.98F WCI  27
$$

OHZ042-051>053-060>062-070>072-077>081-250700-
  SOUTHWEST OHIO

CITY           SKY/WX    TMP DP  RH WIND       PRES   REMARKS
CINC-COVINGTON LGT RAIN  52  37  56 E7        29.88S
CINC-LUNKEN    CLOUDY    52  40  63 CALM      29.90S
HAMILTON       CLOUDY    53  36  52 E3        29.90S
DAYTON         CLOUDY    51  38  60 E7        29.90F
WRIGHT-PAT AFB CLOUDY    49  42  78 NE6       29.90F
DAYTON GENERAL CLOUDY    50  36  58 E7        29.88F
WILMINGTON     CLOUDY    49  34  56 E6        29.90S
$$

OHZ036-037-039>041-045>050-054>059-063>069-073>076-082>088-250700-
  CENTRAL AND SOUTHEAST OHIO

CITY           SKY/WX    TMP DP  RH WIND       PRES   REMARKS
COLUMBUS       CLOUDY    50  34  54 E3        29.92F
OSU AIRPORT    CLOUDY    50  33  52 CALM      29.92F
BOLTON FIELD   CLOUDY    50  34  53 CALM      29.92S
RICKENBACK AFB CLOUDY    48  38  70 CALM      29.91F
NEWARK         CLOUDY    48  34  58 NE5       29.93F
MARION         CLOUDY    47  31  53 SE7       29.94S
LANCASTER      CLOUDY    48  39  71 CALM      29.93F
ZANESVILLE     CLOUDY    44  28  53 E5        29.95S
NEW PHILLY     CLOUDY    46  22  38 NE6       29.99S
$$


USA.gov is the U.S. government's official web portal to all federal, state and local government web resources and services.